Location: Godiavel Galaoual
(15.2485°N, 12.6604°W)
Time: 00:30:33
(UTC+00:00)

Envisat - Visible Passes

Search period start: 02 December 2021 00:00
Search period end: 12 December 2021 00:00
Orbit: 764 x 766 km, 98.2° (Epoch: 01 December)

Date Brightness Start Highest point End Pass type
(mag) Time Alt. Az. Time Alt. Az. Time Alt. Az.
02 Dec 3.8 05:17:04 10° NNE 05:22:00 52° E 05:26:55 10° S visible
03 Dec 5.5 04:41:38 10° NE 04:45:08 19° E 04:48:37 10° SE visible
03 Dec 3.8 06:19:42 10° NNW 06:23:57 28° WNW 06:28:13 10° SW visible
04 Dec 2.9 05:42:11 10° N 05:47:15 77° WNW 05:52:19 10° SSW visible
05 Dec 4.4 05:05:46 10° NNE 05:10:27 38° E 05:15:07 10° SSE visible
06 Dec 5.9 04:31:06 10° ENE 04:33:34 14° E 04:36:00 10° SE visible
06 Dec 3.4 06:07:49 10° N 06:12:27 37° WNW 06:17:06 10° SW visible
07 Dec 3.1 05:30:39 10° NNE 05:35:43 78° ESE 05:40:48 10° S visible
08 Dec 4.9 04:54:36 10° NE 04:58:53 28° E 05:03:10 10° SSE visible
08 Dec 4.3 06:34:07 10° NNW 06:37:36 19° WNW 06:41:06 10° WSW visible
09 Dec 3.1 05:56:03 10° N 06:00:57 51° WNW 06:05:51 10° SSW visible
10 Dec 3.6 05:19:13 10° NNE 05:24:11 57° E 05:29:09 10° S visible
11 Dec 5.4 04:43:36 10° NE 04:47:19 21° E 04:51:02 10° SSE visible
11 Dec 3.9 06:22:00 10° NNW 06:26:07 25° WNW 06:30:14 10° SW visible
